Starlink 32581

operational
NORAD ID: 62184 Int'l Des: 2024-225 Owner: SPXS Country: US Constellation: starlink
LEOCIRCULAR

Über Starlink 32581

Beschreibung wird geladen...

Live-Position

3D-Globus wird geladen...

Nächste Überflüge

Höhenverlauf

Altitude vs Time

uPlot chart will show altitude changes over time

Zweizeiliger Elementsatz

1 62184U 24225X 25303.88504393 .00009010 00000-0 76208-3 0 9995
2 62184 69.9992 121.6479 0002594 273.8158 86.2705 14.98324211 50683
Epoch: 30. Okt. 2025 • Age: 8 hours

Aktueller Status

Höhe 590.5 km
Geschwindigkeit 7.56 km/s
Subsatellitenpunkt -53.03°S, 22.58°W
Startdatum 30. Nov. 2024
Alter 0.9 years
Typ internet

Technische Details

Klassifizierung Payload
Masse 730.00 kg
Trockenmasse 700.00 kg
Gesamtmasse 730.00 kg
Länge 0.30 m
Durchmesser 4.10 m
Spannweite 29.00 m
Form Box + pan
Hersteller SPXS
Bus-Typ Starlink V2M
Phasenstatus In Orbit
Besitzer/Staat SPXS/US

Große Konstellationen

Loading constellations...